UITMSAT-2

Last updated on Thu Aug 20 2026 00:02:05 GMT+0000 (Coordinated Universal Time)

1 67686U 98067YC 26230.99831945 .00129252 00000+0 81201-3 0 9999 2 67686 51.6245 331.6782 0007099 17.6758 342.4488 15.75797019 30172
UTC large
Height (km)
Speed (km/s)
/
Latitude / Longitude
Inclination (degrees)
Orbital Period (minutes)
Azimuth
Elevation
Range (km)
Doppler Factor

Next 0 passes for location: London (51.5072 / 0.1276)

No passes found over London.
UITMSAT-2